SCP
0 0 0 0 0 0 0 0 0 0 0 0 0 0 0 0 0 0 0 0 0 0 0 0 0 0 0 0 0 0 0 0 0 0 0 0 0 0
0 0 0 0 0 0 0 0 0 0 0 0 0 0 0 0 0 0 0 0 0 0 0 0 0 0 0 0 0 0 0 0 0 0 0 0 0 0
0 0 0 0 0 0 0 0 0 0 0 0 0 0 0 0 0 0 0 0 0 0 0 0 0 0 0 0 0 0 0 0 0 0 0 0 0 0
0 0 0 0 0 0 0 0 0 0 0 0 0 0 0 0 0 0 0 0 0 0 0 0 0 0 0 0 0 0 0 0 0 0 0 0 0 0
0 0 0 0 0 0 0 0 0 0 0 0 0 0 0 0 0 0 0 0 0 0 0 0 0 0 0 0 0 0 0 0 0 0 0 0 0 0
0 0 0 0 0 0 0 0 0 0 0 0 0 0 0 0 0 0 0 0 0 0 0 0 0 0 0 0 0 0 0 0 0 0 0 0 0 0
0 0 0 0 0 0 0 0 0 0 0 0 0 0 0 0 0 0 0 0 0 0 0 0 0 0 0 0 0 0 0 0 0 0 0 0 0 0
0 0 0 0 0 0 0 0 0 0 0 0 0 0 0 0 0 0 0 0 0 0 0 0 0 0 0 0 0 0 0 0 0 0 0 0 0 0
0 0 0 0 0 0 0 0 0 0 0 0 0 0 0 0 0 0 0 0 0 0 0 0 0 0 0 0 -0 -0 0 0 0 0 0 0 0 0
0 0 0 0 0 0 0 0 0 0 0 0 0 0 0 0 0 0 -0 -0 0 0 0 -0 0 0 -0 -0 -0 -0 -0 -0 0 0 0 0 0 0
0 0 0 0 0 0 0 0 0 0 0 0 0 0 0 0 0 -0 0 -0 0 -0 -0 -0 0 -0 -0 0 0 -0 -0 -0 -0 0 0 0 0 0
0 0 0 0 0 0 0 0 0 0 0 0 0 0 0 0 0 0 -0 0 0 -0 0 0 -0 0 0 0 0 0 -0 -0 -0 0 0 0 0 0
0 0 0 0 0 0 0 0 0 0 0 -0 0 0 0 0 0 0 0 0 0 -0 0 -0 -0 0 0 -0 0 0 0 0 -0 0 0 0 0 0
0 0 0 0 0 0 0 0 -0 0 -0 0 0 0 0 0 0 0 0 0 0 -0 -0 -0 0 -0 -0 -0 -0 -0 0 0 0 0 0 0 -0 -0
0 0 0 0 0 0 0 -0 0 0 0 0 0 0 0 0 0 0 0 0 0 -0 0 -0 0 -0 -0 -0 -0 -0 0 0 0 0 0 0 0 0
0 0 0 0 0 0 0 0 0 0 0 0 0 0 0 0 0 0 0 0 0 0 0 0 -0 0 -0 -0 -0 -0 0 0 0 0 0 0 0 0
0 0 0 0 0 0 0 0 0 0 0 0 0 0 0 0 0 0 0 0 0 0 0 0 -0 0 0 0 0 0 0 0 0 0 0 0 0 0
0 0 -0 -0 0 0 0 0 0 0 0 0 0 0 0 0 0 0 0 0 0 0 0 0 0 0 0 0 0 0 0 0 0 0 0 0 0 0
0 0 0 0 0 0 0 0 0 0 0 0 0 0 0 0 0 0 0 0 0 0 0 0 0 0 0 0 0 0 0 0 0 0 0 0 0 0
0 0 0 0 0 0 0 0 0 0 0 0 0 0 0 0 0 0 0 0 0 0 0 0 0 0 0 0 0 0 0 0 0 0 0 0 0 0
-0 0 0 0 0 0 0 0 0 0 0 0 0 0 0 0 0 0 0 -0 0 0 0 0 0 -0 0 0 0 0 0 -0 0 0 0 0 0 0
0 0 0 0 0 0 0 0 0 0 0 0 0 0 0 0 0 0 0 0 0 0 0 0 0 0 0 0 0 0 0 0 0 -0 0 0 0 0
0 0 0 0 0 0 0 0 0 0 0 0 0 0 0 0 0 0 0 0 -0 -0 -0 -0 0 0 0 0 0 0 0 0 0 0 0 0 0 0
Wind_Speed_500mb
55 58 66 66 66 62 63 67 66 84 94 91 88 85 74 84 80 62 80 80 78 82 84 78 76 80 85 83 82 89 91 89 86 83 77 79 74 70
59 69 67 67 67 69 65 64 67 69 89 97 90 90 97 86 81 80 76 79 79 76 77 77 81 86 86 87 86 90 86 86 86 84 81 78 76 69
68 72 69 69 68 67 72 68 69 66 71 99 101 94 92 97 108 88 75 76 81 71 76 76 83 87 88 88 86 84 85 83 84 78 77 76 75 73
81 75 72 68 72 69 67 72 67 76 78 82 95 88 93 99 91 93 82 75 66 77 79 88 95 88 82 86 89 93 91 85 76 78 75 71 73 69
78 73 72 65 67 68 70 78 80 77 69 74 94 95 90 89 99 90 76 75 79 81 92 83 78 77 81 81 81 83 85 84 72 67 68 70 71 71
76 70 59 61 66 72 76 74 66 69 76 85 88 84 89 96 74 78 89 88 96 83 91 80 73 80 74 73 74 77 79 73 72 69 70 69 71 65
74 60 62 63 63 65 67 73 78 85 86 77 79 87 82 87 75 86 88 103 98 89 75 90 82 82 89 79 71 69 66 65 63 67 66 68 69 68
68 68 66 67 65 67 72 77 72 75 85 80 91 93 95 94 90 81 92 96 99 75 84 98 84 90 85 78 69 74 64 68 74 72 73 72 71 71
66 69 70 70 75 82 79 77 81 73 75 84 90 89 91 87 96 95 89 81 89 96 90 92 84 83 75 95 76 71 75 74 73 71 70 72 73 71
72 69 69 78 83 74 83 87 87 89 89 80 79 81 86 90 87 85 88 98 94 83 70 83 79 91 90 84 75 75 68 65 67 60 61 66 63 66
70 64 70 79 75 76 82 90 90 88 89 78 73 75 79 77 70 77 83 81 87 77 77 80 78 91 89 88 74 54 52 54 68 72 64 66 72 72
72 81 77 73 77 77 82 89 80 89 89 81 88 92 77 81 69 67 78 82 85 85 71 76 82 81 77 65 33 72 62 78 62 53 55 67 76 78
83 88 85 79 76 78 80 72 77 81 80 87 82 86 84 81 81 78 73 76 83 84 81 71 78 80 64 65 67 59 76 72 47 47 39 54 74 85
79 87 90 79 80 75 69 71 68 71 76 79 82 79 80 84 78 74 71 68 69 74 69 62 72 74 73 62 58 78 60 42 47 41 14 14 25 56
81 80 76 76 70 73 68 65 64 73 76 80 77 83 83 78 77 74 69 64 65 57 49 43 37 35 45 42 55 63 51 46 38 23 23 30 36 45
83 81 75 70 68 67 72 75 75 73 71 75 78 82 80 78 75 68 74 71 70 57 55 55 39 34 27 33 44 38 32 33 27 25 27 29 39 37
76 76 80 74 75 76 77 78 79 77 79 80 80 80 77 74 69 67 68 66 60 59 65 68 40 21 17 27 33 29 28 20 21 31 49 55 68 69
67 71 70 71 73 75 78 84 85 81 82 80 76 74 71 65 65 64 63 64 56 57 59 62 44 26 11 5 23 24 18 26 33 47 57 69 74 76
65 67 71 72 75 77 81 83 84 84 77 73 74 68 67 65 65 65 65 65 57 55 49 48 44 35 32 30 36 21 27 38 45 63 72 77 80 77
68 67 72 74 76 81 84 83 82 79 72 72 70 70 67 69 72 69 62 57 49 45 46 38 33 34 31 28 36 35 33 53 62 73 76 80 82 75
69 74 71 74 78 81 80 76 74 72 68 72 74 71 71 71 67 54 50 46 39 42 38 35 27 21 23 47 50 50 44 50 59 69 73 80 78 77
73 69 71 73 74 76 72 72 72 69 70 74 73 71 69 65 52 49 47 44 39 37 25 23 21 21 31 49 50 48 46 45 45 47 54 55 45 49
68 68 71 69 73 71 69 68 67 65 69 70 70 69 67 56 45 43 41 36 30 28 21 21 21 24 30 37 42 41 39 40 41 45 50 44 58 68
Wind_Direction_500mb
316 310 310 307 307 304 300 302 301 305 304 305 306 309 305 307 306 300 299 302 298 297 296 297 296 294 292 290 288 287 285 284 282 282 281 277 276 269
308 310 310 308 305 304 305 300 299 298 299 302 305 305 306 307 301 305 299 300 299 298 296 297 296 294 292 289 286 287 284 284 282 279 277 276 270 268
309 313 308 307 307 304 304 303 300 299 295 296 300 305 305 305 309 307 303 300 298 297 297 298 297 294 289 286 285 286 284 285 281 278 274 271 268 269
312 313 311 308 306 308 305 304 301 297 297 295 298 303 302 307 303 302 304 301 297 298 298 296 293 293 290 289 287 285 282 282 278 280 276 272 268 268
315 316 314 313 311 309 307 304 303 300 295 294 299 302 302 302 302 300 301 300 301 302 301 297 298 297 291 288 287 286 283 281 279 284 283 270 272 271
318 319 318 315 310 308 308 307 305 304 304 299 296 298 305 303 302 308 305 305 306 305 302 301 299 296 292 291 289 284 283 284 285 285 281 274 271 269
320 324 319 312 308 306 307 308 309 306 303 313 302 308 312 310 309 306 303 308 304 304 301 301 304 301 302 300 296 292 287 286 284 281 278 275 272 261
325 320 319 315 313 309 306 306 304 307 307 309 313 309 305 302 301 302 304 303 303 305 307 302 304 301 303 305 299 292 283 288 289 283 277 275 270 268
319 319 316 314 314 315 314 306 311 309 309 308 305 303 299 307 310 303 302 301 299 301 304 299 302 297 298 302 298 293 290 284 285 280 274 270 265 266
319 316 313 315 318 315 311 312 313 316 311 310 305 304 307 307 305 304 302 299 301 301 303 297 300 298 305 302 299 294 289 282 278 272 270 263 259 253
315 313 314 317 316 315 312 315 316 311 318 311 308 306 305 304 304 305 305 305 301 302 304 300 298 299 304 306 313 300 290 293 290 288 277 263 254 244
318 317 322 318 316 314 318 316 315 320 316 319 312 313 317 321 314 309 306 301 301 301 302 297 299 303 301 305 301 305 304 306 299 284 272 256 246 238
320 322 323 320 316 319 317 318 317 316 317 313 316 320 321 319 317 316 315 309 300 296 313 302 299 300 295 298 304 304 310 313 314 309 293 253 238 225
321 320 320 319 321 320 318 318 318 316 318 322 318 319 318 321 326 328 329 327 324 314 320 317 299 299 297 301 306 313 322 332 341 332 10 167 206 213
319 320 317 321 321 319 324 321 322 329 323 321 319 320 323 330 334 337 339 339 338 344 340 332 325 307 305 314 316 321 330 349 0 16 79 119 155 185
327 324 323 323 325 326 328 331 333 328 324 321 321 326 333 335 338 345 346 347 339 346 349 348 325 293 306 341 335 330 343 328 7 56 75 112 116 143
324 323 328 331 330 330 329 331 330 328 328 329 329 333 336 340 342 349 350 348 348 345 345 351 355 325 266 2 351 345 351 27 54 79 93 93 92 92
325 330 329 329 328 327 327 328 330 330 332 335 339 340 339 342 342 345 349 342 345 349 349 356 4 28 34 289 11 16 64 82 90 92 94 98 95 95
333 332 329 328 326 327 329 328 327 333 340 343 343 344 344 344 343 343 340 338 343 349 357 8 28 46 55 34 44 51 93 97 99 95 94 92 92 93
336 331 328 328 330 331 330 330 334 341 345 346 347 348 349 348 342 340 339 341 346 355 2 13 26 33 32 45 51 51 106 107 105 102 97 97 97 97
332 329 330 332 333 335 335 339 342 344 344 349 350 350 351 351 346 348 353 355 359 7 2 10 20 34 88 92 79 83 88 104 108 109 109 106 98 97
330 333 333 333 337 340 342 343 344 347 349 349 351 353 352 349 347 355 358 358 8 10 17 29 43 68 90 90 86 87 90 95 105 109 107 106 106 100
335 334 334 337 342 343 344 343 343 344 348 350 352 352 350 348 353 359 357 3 14 18 27 56 70 77 92 93 90 85 86 89 97 94 82 97 109 110
Wind_Speed_850mb
55 58 66 66 66 62 63 67 66 84 94 91 88 85 74 84 80 62 80 80 78 82 84 78 76 80 85 83 82 89 91 89 86 83 77 79 74 70
59 69 67 67 67 69 65 64 67 69 89 97 90 90 97 86 81 80 76 79 79 76 77 77 81 86 86 87 86 90 86 86 86 84 81 78 76 69
68 72 69 69 68 67 72 68 69 66 71 99 101 94 92 97 108 88 75 76 81 71 76 76 83 87 88 88 86 84 85 83 84 78 77 76 75 73
81 75 72 68 72 69 67 72 67 76 78 82 95 88 93 99 91 93 82 75 66 77 79 88 95 88 82 86 89 93 91 85 76 78 75 71 73 69
78 73 72 65 67 68 70 78 80 77 69 74 94 95 90 89 99 90 76 75 79 81 92 83 78 77 81 81 81 83 85 84 72 67 68 70 71 71
76 70 59 61 66 72 76 74 66 69 76 85 88 84 89 96 74 78 89 88 96 83 91 80 73 80 74 73 74 77 79 73 72 69 70 69 71 65
74 60 62 63 63 65 67 73 78 85 86 77 79 87 82 87 75 86 88 103 98 89 75 90 82 82 89 79 71 69 66 65 63 67 66 68 69 68
68 68 66 67 65 67 72 77 72 75 85 80 91 93 95 94 90 81 92 96 99 75 84 98 84 90 85 78 69 74 64 68 74 72 73 72 71 71
66 69 70 70 75 82 79 77 81 73 75 84 90 89 91 87 96 95 89 81 89 96 90 92 84 83 75 95 76 71 75 74 73 71 70 72 73 71
72 69 69 78 83 74 83 87 87 89 89 80 79 81 86 90 87 85 88 98 94 83 70 83 79 91 90 84 75 75 68 65 67 60 61 66 63 66
70 64 70 79 75 76 82 90 90 88 89 78 73 75 79 77 70 77 83 81 87 77 77 80 78 91 89 88 74 54 52 54 68 72 64 66 72 72
72 81 77 73 77 77 82 89 80 89 89 81 88 92 77 81 69 67 78 82 85 85 71 76 82 81 77 65 33 72 62 78 62 53 55 67 76 78
83 88 85 79 76 78 80 72 77 81 80 87 82 86 84 81 81 78 73 76 83 84 81 71 78 80 64 65 67 59 76 72 47 47 39 54 74 85
79 87 90 79 80 75 69 71 68 71 76 79 82 79 80 84 78 74 71 68 69 74 69 62 72 74 73 62 58 78 60 42 47 41 14 14 25 56
81 80 76 76 70 73 68 65 64 73 76 80 77 83 83 78 77 74 69 64 65 57 49 43 37 35 45 42 55 63 51 46 38 23 23 30 36 45
83 81 75 70 68 67 72 75 75 73 71 75 78 82 80 78 75 68 74 71 70 57 55 55 39 34 27 33 44 38 32 33 27 25 27 29 39 37
76 76 80 74 75 76 77 78 79 77 79 80 80 80 77 74 69 67 68 66 60 59 65 68 40 21 17 27 33 29 28 20 21 31 49 55 68 69
67 71 70 71 73 75 78 84 85 81 82 80 76 74 71 65 65 64 63 64 56 57 59 62 44 26 11 5 23 24 18 26 33 47 57 69 74 76
65 67 71 72 75 77 81 83 84 84 77 73 74 68 67 65 65 65 65 65 57 55 49 48 44 35 32 30 36 21 27 38 45 63 72 77 80 77
68 67 72 74 76 81 84 83 82 79 72 72 70 70 67 69 72 69 62 57 49 45 46 38 33 34 31 28 36 35 33 53 62 73 76 80 82 75
69 74 71 74 78 81 80 76 74 72 68 72 74 71 71 71 67 54 50 46 39 42 38 35 27 21 23 47 50 50 44 50 59 69 73 80 78 77
73 69 71 73 74 76 72 72 72 69 70 74 73 71 69 65 52 49 47 44 39 37 25 23 21 21 31 49 50 48 46 45 45 47 54 55 45 49
68 68 71 69 73 71 69 68 67 65 69 70 70 69 67 56 45 43 41 36 30 28 21 21 21 24 30 37 42 41 39 40 41 45 50 44 58 68
Wind_Direction_850mb
316 310 310 307 307 304 300 302 301 305 304 305 306 309 305 307 306 300 299 302 298 297 296 297 296 294 292 290 288 287 285 284 282 282 281 277 276 269
308 310 310 308 305 304 305 300 299 298 299 302 305 305 306 307 301 305 299 300 299 298 296 297 296 294 292 289 286 287 284 284 282 279 277 276 270 268
309 313 308 307 307 304 304 303 300 299 295 296 300 305 305 305 309 307 303 300 298 297 297 298 297 294 289 286 285 286 284 285 281 278 274 271 268 269
312 313 311 308 306 308 305 304 301 297 297 295 298 303 302 307 303 302 304 301 297 298 298 296 293 293 290 289 287 285 282 282 278 280 276 272 268 268
315 316 314 313 311 309 307 304 303 300 295 294 299 302 302 302 302 300 301 300 301 302 301 297 298 297 291 288 287 286 283 281 279 284 283 270 272 271
318 319 318 315 310 308 308 307 305 304 304 299 296 298 305 303 302 308 305 305 306 305 302 301 299 296 292 291 289 284 283 284 285 285 281 274 271 269
320 324 319 312 308 306 307 308 309 306 303 313 302 308 312 310 309 306 303 308 304 304 301 301 304 301 302 300 296 292 287 286 284 281 278 275 272 261
325 320 319 315 313 309 306 306 304 307 307 309 313 309 305 302 301 302 304 303 303 305 307 302 304 301 303 305 299 292 283 288 289 283 277 275 270 268
319 319 316 314 314 315 314 306 311 309 309 308 305 303 299 307 310 303 302 301 299 301 304 299 302 297 298 302 298 293 290 284 285 280 274 270 265 266
319 316 313 315 318 315 311 312 313 316 311 310 305 304 307 307 305 304 302 299 301 301 303 297 300 298 305 302 299 294 289 282 278 272 270 263 259 253
315 313 314 317 316 315 312 315 316 311 318 311 308 306 305 304 304 305 305 305 301 302 304 300 298 299 304 306 313 300 290 293 290 288 277 263 254 244
318 317 322 318 316 314 318 316 315 320 316 319 312 313 317 321 314 309 306 301 301 301 302 297 299 303 301 305 301 305 304 306 299 284 272 256 246 238
320 322 323 320 316 319 317 318 317 316 317 313 316 320 321 319 317 316 315 309 300 296 313 302 299 300 295 298 304 304 310 313 314 309 293 253 238 225
321 320 320 319 321 320 318 318 318 316 318 322 318 319 318 321 326 328 329 327 324 314 320 317 299 299 297 301 306 313 322 332 341 332 10 167 206 213
319 320 317 321 321 319 324 321 322 329 323 321 319 320 323 330 334 337 339 339 338 344 340 332 325 307 305 314 316 321 330 349 0 16 79 119 155 185
327 324 323 323 325 326 328 331 333 328 324 321 321 326 333 335 338 345 346 347 339 346 349 348 325 293 306 341 335 330 343 328 7 56 75 112 116 143
324 323 328 331 330 330 329 331 330 328 328 329 329 333 336 340 342 349 350 348 348 345 345 351 355 325 266 2 351 345 351 27 54 79 93 93 92 92
325 330 329 329 328 327 327 328 330 330 332 335 339 340 339 342 342 345 349 342 345 349 349 356 4 28 34 289 11 16 64 82 90 92 94 98 95 95
333 332 329 328 326 327 329 328 327 333 340 343 343 344 344 344 343 343 340 338 343 349 357 8 28 46 55 34 44 51 93 97 99 95 94 92 92 93
336 331 328 328 330 331 330 330 334 341 345 346 347 348 349 348 342 340 339 341 346 355 2 13 26 33 32 45 51 51 106 107 105 102 97 97 97 97
332 329 330 332 333 335 335 339 342 344 344 349 350 350 351 351 346 348 353 355 359 7 2 10 20 34 88 92 79 83 88 104 108 109 109 106 98 97
330 333 333 333 337 340 342 343 344 347 349 349 351 353 352 349 347 355 358 358 8 10 17 29 43 68 90 90 86 87 90 95 105 109 107 106 106 100
335 334 334 337 342 343 344 343 343 344 348 350 352 352 350 348 353 359 357 3 14 18 27 56 70 77 92 93 90 85 86 89 97 94 82 97 109 110